1516993200.86,56494,9.19,73742.3,-3.43,-23.89,-24.87,0,*57
1516993202.07,56495,9.19,73738.5,-3.45,-24.05,-25.09,0,*54
1516993203.27,56496,9.19,73742.8,-3.45,-23.89,-24.93,0,*56
1516993204.55,56497,9.19,73742.8,-3.47,-23.95,-25.03,0,*50
1516993205.78,56498,9.19,73736.5,-3.45,-23.89,-24.87,0,*5D
1516993207.06,56499,9.19,73736.8,-3.43,-23.85,-24.87,0,*56
1516993208.29,56500,9.19,73742.5,-3.45,-23.95,-24.93,0,*55
1516993209.55,56501,9.19,73736.8,-3.45,-24.11,-25.03,0,*57
1516993210.78,56502,9.19,73738.3,-3.45,-24.05,-25.03,0,*51
1516993212.03,56503,9.19,73740.0,-3.45,-23.95,-24.87,0,*53
1516993213.27,56504,9.19,73740.5,-3.45,-24.05,-25.03,0,*57
1516993214.5,56505,9.19,73742.0,-3.45,-24.11,-25.09,0,*59
1516993215.74,56506,9.19,73740.5,-3.45,-24.05,-25.03,0,*55
1516993216.96,56507,9.19,73738.5,-3.45,-23.95,-24.93,0,*52
1516993218.2,56508,9.19,73740.5,-3.45,-24.11,-25.09,0,*54
1516993219.41,56509,9.19,73740.5,-3.45,-24.05,-25.09,0,*50
1516993220.65,56510,9.19,73740.0,-3.45,-24.05,-25.03,0,*52
1516993221.87,56511,9.13,73736.3,-3.45,-23.89,-24.87,0,*5D
1516993223.13,56512,9.19,73744.0,-3.45,-23.95,-25.03,0,*5E
1516993224.39,56513,9.19,73740.3,-3.47,-24.05,-25.03,0,*53
1516993225.64,56514,9.19,73742.0,-3.47,-23.95,-24.93,0,*52
1516993226.87,56515,9.19,73740.5,-3.49,-24.11,-24.97,0,*52
1516993228.13,56516,9.19,73740.0,-3.47,-23.95,-24.93,0,*50
1516993229.38,56517,9.19,73742.5,-3.45,-23.95,-25.03,0,*5B
1516993230.64,56518,9.19,73740.0,-3.45,-23.95,-25.03,0,*54
1516993231.85,56519,9.19,73740.5,-3.45,-24.05,-25.09,0,*51
1516993233.11,56520,9.19,73742.0,-3.47,-23.79,-24.87,0,*52
1516993234.33,56521,9.19,73742.0,-3.47,-23.89,-24.93,0,*59
1516993235.57,56522,9.13,73742.0,-3.45,-24.11,-25.09,0,*5C
1516993236.79,56523,9.19,73744.3,-3.45,-23.95,-24.93,0,*54
1516993238.05,56524,9.19,73740.0,-3.47,-23.95,-24.93,0,*51
1516993239.31,56525,9.13,73740.5,-3.47,-24.11,-25.09,0,*59
1516993240.56,56526,9.19,73746.0,-3.47,-24.05,-25.03,0,*55
1516993241.84,56527,9.13,73740.0,-3.47,-23.95,-25.03,0,*5A
1516993243.09,56528,9.13,73736.5,-3.47,-23.95,-24.93,0,*5D
1516993244.33,56529,9.19,73742.0,-3.47,-24.05,-25.09,0,*50
1516993245.56,56530,9.19,73742.0,-3.47,-23.89,-24.93,0,*59
1516993246.78,56531,9.13,73740.3,-3.47,-23.89,-24.93,0,*58
1516993248.04,56532,9.19,73742.5,-3.47,-24.11,-25.09,0,*5F
1516993249.29,56533,9.13,73736.8,-3.47,-23.95,-24.93,0,*57
1516993250.51,56534,9.13,73740.0,-3.45,-24.05,-25.09,0,*5E
1516993251.76,56535,9.19,73740.8,-3.47,-24.11,-25.09,0,*58
1516993253.0,56536,9.19,73740.5,-3.47,-24.05,-25.09,0,*5E
1516993254.23,56537,9.13,73738.3,-3.47,-24.05,-25.09,0,*5F
1516993255.49,56538,9.19,73742.3,-3.47,-24.11,-25.09,0,*55
1516993256.73,56539,9.19,73742.3,-3.47,-24.05,-25.09,0,*51
1516993257.98,56540,9.13,73740.5,-3.47,-23.89,-24.87,0,*5B
1516993259.19,56541,9.19,73740.3,-3.45,-24.05,-25.09,0,*5C
1516993260.45,56542,9.19,73742.3,-3.47,-24.11,-25.09,0,*58
1516993261.69,56543,9.19,73746.3,-3.47,-24.05,-25.09,0,*5C
1516993262.93,56544,9.19,73740.8,-3.49,-23.99,-25.09,0,*57
1516993264.19,56545,9.19,73740.8,-3.47,-23.95,-25.09,0,*54
1516993265.42,56546,9.19,73742.8,-3.47,-24.05,-25.09,0,*59
1516993266.66,56547,9.19,73742.0,-3.49,-24.11,-25.13,0,*58
1516993267.92,56548,9.19,73742.5,-3.47,-24.11,-25.09,0,*52
1516993269.18,56549,9.13,73742.0,-3.47,-24.11,-25.09,0,*53
1516993270.42,56550,9.19,73740.3,-3.49,-24.11,-25.13,0,*5E
1516993271.67,56551,9.13,73738.0,-3.47,-24.11,-25.09,0,*5A
1516993272.91,56552,9.19,73740.3,-3.49,-23.99,-24.97,0,*56
1516993274.14,56553,9.19,73742.8,-3.49,-23.85,-24.93,0,*5E
1516993275.42,56554,9.19,73740.8,-3.47,-23.95,-25.03,0,*5E
1516993276.67,56555,9.19,73742.5,-3.47,-23.89,-25.03,0,*52
1516993277.93,56556,9.19,73742.0,-3.47,-24.11,-25.09,0,*5D
1516993279.15,56557,9.19,73742.3,-3.49,-24.05,-25.09,0,*57
1516993280.39,56558,9.19,73740.0,-3.49,-23.99,-25.13,0,*51
1516993281.66,56559,9.13,73738.8,-3.47,-23.95,-25.03,0,*53
1516993282.92,56560,9.19,73740.5,-3.47,-24.11,-25.09,0,*58
1516993284.18,56561,9.19,73740.0,-3.47,-24.11,-25.19,0,*58
1516993285.42,56562,9.19,73742.0,-3.49,-23.99,-25.09,0,*53
1516993286.65,56563,9.13,73738.3,-3.49,-24.05,-25.03,0,*5A
1516993287.89,56564,9.13,73740.5,-3.49,-23.95,-24.97,0,*5F
1516993289.17,56565,9.19,73740.3,-3.47,-23.95,-25.03,0,*5C
1516993290.41,56566,9.19,73742.0,-3.49,-23.95,-25.09,0,*5B
1516993291.67,56567,9.19,73746.3,-3.47,-24.11,-25.09,0,*5F
1516993292.9,56568,9.13,73740.8,-3.47,-24.05,-25.09,0,*55
1516993294.13,56569,9.19,73740.0,-3.49,-23.95,-24.97,0,*52
1516993295.39,56570,9.19,73738.3,-3.47,-23.95,-25.09,0,*52
1516993296.67,56571,9.19,73742.0,-3.47,-24.11,-25.03,0,*52
1516993297.93,56572,9.13,73738.5,-3.47,-24.11,-25.09,0,*5B
1516993299.17,56573,9.19,73740.5,-3.49,-23.99,-25.13,0,*58
1516993300.4,56574,9.13,73738.3,-3.49,-24.15,-25.13,0,*5C
1516993301.64,56575,9.19,73740.0,-3.49,-23.95,-25.09,0,*59
1516993302.88,56576,9.13,73736.3,-3.49,-24.15,-25.13,0,*5E
1516993304.11,56577,9.19,73740.5,-3.49,-24.15,-25.13,0,*5F
1516993305.35,56578,9.19,73740.8,-3.47,-24.05,-25.09,0,*54
1516993306.59,56579,9.19,73740.3,-3.49,-23.99,-25.09,0,*59
1516993307.83,56580,9.19,73742.0,-3.49,-24.11,-25.13,0,*53
1516993309.07,56581,9.19,73742.3,-3.49,-24.25,-25.13,0,*55
1516993310.31,56582,9.19,73740.8,-3.49,-24.11,-25.09,0,*5A
1516993311.54,56583,9.19,73744.5,-3.49,-24.15,-25.13,0,*54
1516993312.8,56584,9.19,73742.3,-3.47,-24.05,-25.03,0,*5D
1516993314.04,56585,9.19,73746.3,-3.49,-24.11,-25.13,0,*56
1516993315.29,56586,9.19,73746.3,-3.47,-24.05,-25.03,0,*5F
1516993316.53,56587,9.19,73742.0,-3.49,-24.11,-25.09,0,*5F
1516993317.77,56588,9.13,73740.5,-3.49,-23.99,-25.09,0,*57
1516993319.01,56589,9.19,73740.5,-3.49,-24.05,-25.03,0,*5E
1516993320.24,56590,9.19,73742.3,-3.49,-24.15,-25.23,0,*55
1516993321.48,56591,9.19,73742.8,-3.49,-24.15,-25.23,0,*54
1516993322.71,56592,9.19,73740.5,-3.49,-24.11,-25.09,0,*5B
1516993323.97,56593,9.19,73740.8,-3.47,-23.89,-24.87,0,*55
1516993325.2,56594,9.19,73738.5,-3.49,-23.99,-24.97,0,*5C
1516993326.44,56595,9.19,73740.8,-3.49,-24.15,-25.13,0,*53
1516993327.68,56596,9.13,73740.5,-3.49,-24.11,-25.09,0,*5F
1516993328.92,56597,9.19,73740.5,-3.49,-23.99,-25.09,0,*59
1516993330.15,56598,9.19,73742.5,-3.49,-24.11,-25.13,0,*5A
1516993331.39,56599,9.19,73740.0,-3.49,-23.99,-25.09,0,*57
1516993332.63,56600,9.19,73738.8,-3.49,-23.99,-25.13,0,*5F
1516993333.86,56601,9.19,73740.5,-3.49,-24.15,-25.13,0,*5D
1516993335.1,56602,9.13,73738.8,-3.49,-24.11,-25.09,0,*51
1516993336.34,56603,9.19,73742.3,-3.49,-24.11,-25.13,0,*5B
1516993337.58,56604,9.19,73740.3,-3.49,-24.15,-25.13,0,*58
1516993338.82,56605,9.19,73738.8,-3.49,-24.11,-25.09,0,*56
1516993340.05,56606,9.19,73742.3,-3.49,-24.15,-25.13,0,*5A
1516993341.29,56607,9.19,73738.8,-3.49,-24.11,-25.09,0,*54
1516993342.55,56608,9.19,73738.5,-3.51,-24.15,-25.23,0,*5E
1516993343.79,56609,9.19,73740.3,-3.49,-24.25,-25.23,0,*55
1516993345.05,56610,9.13,73738.3,-3.51,-24.11,-25.13,0,*50
1516993346.29,56611,9.19,73736.0,-3.53,-24.15,-25.13,0,*57
1516993347.55,56612,9.19,73738.8,-3.51,-24.15,-25.13,0,*56
1516993348.78,56613,9.19,73738.3,-3.53,-24.15,-25.19,0,*5F
1516993350.03,56614,9.19,73740.0,-3.53,-24.21,-25.19,0,*5F
1516993351.29,56615,9.13,73736.3,-3.51,-24.11,-25.13,0,*55
1516993352.55,56616,9.19,73740.0,-3.51,-23.99,-25.13,0,*51
1516993353.79,56617,9.13,73740.0,-3.53,-24.21,-25.19,0,*5C
1516993355.05,56618,9.13,73736.8,-3.51,-24.15,-25.23,0,*5F
1516993356.33,56619,9.19,73736.5,-3.51,-23.69,-24.67,0,*53
1516993357.61,56620,9.19,73738.3,-3.51,-23.85,-24.83,0,*51
1516993358.87,56621,9.13,73736.5,-3.51,-23.99,-25.09,0,*5E
1516993360.14,56622,9.19,73740.3,-3.51,-24.11,-25.09,0,*5A
1516993361.4,56623,9.19,73738.8,-3.51,-23.99,-25.13,0,*57
1516993362.66,56624,9.13,73738.8,-3.51,-24.15,-25.13,0,*53
1516993363.91,56625,9.19,73740.0,-3.53,-24.21,-25.19,0,*5D
1516993365.17,56626,9.19,73740.0,-3.51,-24.15,-25.13,0,*51
1516993366.41,56627,9.19,73740.3,-3.53,-24.21,-25.19,0,*5F
1516993367.67,56628,9.19,73746.0,-3.51,-24.11,-25.19,0,*51
1516993368.93,56629,9.19,73742.8,-3.51,-24.15,-25.13,0,*5E
1516993370.17,56630,9.13,73738.0,-3.53,-24.21,-25.19,0,*59
1516993371.41,56631,9.13,73736.3,-3.53,-24.21,-25.19,0,*58
1516993372.68,56632,9.19,73740.5,-3.51,-24.31,-25.29,0,*5B
1516993373.94,56633,9.19,73740.3,-3.51,-24.15,-25.23,0,*56
1516993375.2,56634,9.19,73740.8,-3.51,-23.95,-25.09,0,*56
1516993376.47,56635,9.13,73738.8,-3.51,-23.99,-25.13,0,*50
1516993377.68,56636,9.13,73738.8,-3.53,-24.05,-25.19,0,*59
1516993378.94,56637,9.13,73736.8,-3.51,-23.95,-25.09,0,*55
1516993380.18,56638,9.19,73744.3,-3.53,-23.99,-25.13,0,*5F
1516993381.45,56639,9.19,73742.0,-3.51,-23.99,-25.13,0,*5C
1516993382.66,56640,9.13,73738.8,-3.53,-24.05,-25.13,0,*52
1516993383.93,56641,9.19,73742.3,-3.51,-23.99,-25.13,0,*53
1516993385.14,56642,9.19,73740.0,-3.53,-24.05,-25.13,0,*50
1516993386.38,56643,9.19,73738.8,-3.53,-24.15,-25.19,0,*5A
1516993387.61,56644,9.19,73736.8,-3.53,-24.15,-25.19,0,*5D
1516993388.87,56645,9.19,73742.8,-3.51,-24.15,-25.13,0,*54
1516993390.11,56646,9.19,73742.0,-3.53,-24.21,-25.19,0,*58
1516993391.33,56647,9.13,73736.8,-3.53,-24.05,-25.19,0,*5F
1516993392.58,56648,9.13,73736.5,-3.55,-24.15,-25.19,0,*57
1516993393.84,56649,9.13,73742.0,-3.55,-24.05,-25.03,0,*5C
1516993395.05,56650,9.13,73742.0,-3.53,-24.05,-25.19,0,*59
1516993396.27,56651,9.13,73742.8,-3.53,-24.05,-25.13,0,*52
1516993397.5,56652,9.19,73744.5,-3.53,-24.15,-25.19,0,*5A
1516993398.74,56653,9.13,73742.8,-3.53,-24.21,-25.19,0,*5C
1516993399.98,56654,9.19,73742.8,-3.53,-24.15,-25.13,0,*56
1516993401.22,56655,9.13,73736.5,-3.53,-23.99,-25.19,0,*5E
1516993402.46,56656,9.13,73736.8,-3.53,-23.99,-25.13,0,*57
1516993403.69,56657,9.19,73740.5,-3.53,-24.15,-25.19,0,*5F
1516993404.93,56658,9.13,73740.8,-3.55,-24.05,-25.13,0,*5D
1516993406.18,56659,9.13,73742.5,-3.55,-24.15,-25.19,0,*57
1516993407.45,56660,9.13,73742.5,-3.55,-24.21,-25.13,0,*50
1516993408.71,56661,9.13,73738.8,-3.55,-24.21,-25.19,0,*5B
1516993409.96,56662,9.19,73740.3,-3.55,-24.15,-25.19,0,*5F
1516993411.25,56663,9.19,73742.3,-3.55,-24.21,-25.29,0,*5A
1516993412.49,56664,9.19,73740.3,-3.55,-24.05,-25.13,0,*52
1516993413.73,56665,9.13,73740.0,-3.53,-24.21,-25.35,0,*57
1516993414.97,56666,9.19,73744.5,-3.55,-24.05,-25.13,0,*50
1516993416.18,56667,9.19,73738.3,-3.57,-24.05,-24.97,0,*5E
1516993417.41,56668,9.13,73736.8,-3.55,-24.05,-25.19,0,*54
1516993418.65,56669,9.19,73742.0,-3.55,-24.05,-25.19,0,*55
1516993419.88,56670,9.13,73738.3,-3.55,-24.05,-25.19,0,*5D
1516993421.14,56671,9.13,73738.3,-3.55,-23.99,-25.19,0,*5E
1516993422.38,56672,9.19,73742.5,-3.55,-24.05,-25.13,0,*55
1516993423.61,56673,9.19,73740.5,-3.55,-24.05,-25.19,0,*5E
1516993424.89,56674,9.19,73740.5,-3.55,-23.99,-25.03,0,*50
1516993426.13,56675,9.19,73740.0,-3.55,-24.05,-25.19,0,*58
1516993427.36,56676,9.19,73740.5,-3.55,-24.05,-25.19,0,*5B
1516993428.62,56677,9.13,73740.8,-3.55,-23.99,-25.19,0,*58
1516993429.87,56678,9.19,73740.3,-3.55,-24.15,-25.19,0,*54
1516993431.13,56679,9.13,73740.0,-3.55,-23.99,-25.13,0,*5C
1516993432.35,56680,9.19,73742.0,-3.57,-24.05,-25.19,0,*50
1516993433.6,56681,9.19,73742.3,-3.55,-24.15,-25.19,0,*52
1516993434.89,56682,9.19,73742.0,-3.55,-24.21,-25.29,0,*55
1516993436.15,56683,9.19,73740.0,-3.55,-23.99,-25.13,0,*59
1516993437.41,56684,9.13,73736.8,-3.55,-23.99,-25.19,0,*54
1516993438.67,56685,9.19,73742.0,-3.55,-24.05,-25.03,0,*5C
1516993439.9,56686,9.13,73742.0,-3.55,-24.05,-25.19,0,*54
1516993441.16,56687,9.13,73738.3,-3.55,-23.99,-24.97,0,*50
1516993442.4,56688,9.19,73742.3,-3.57,-24.11,-25.23,0,*54
1516993443.68,56689,9.13,73736.8,-3.55,-23.99,-25.03,0,*52
1516993444.91,56690,9.13,73738.0,-3.55,-24.05,-25.19,0,*53
1516993446.17,56691,9.13,73740.0,-3.55,-23.89,-25.03,0,*5A
1516993447.4,56692,9.19,73740.8,-3.55,-23.89,-24.97,0,*55
1516993448.66,56693,9.19,73742.0,-3.55,-23.99,-25.13,0,*58
1516993449.92,56694,9.19,73744.3,-3.55,-23.99,-25.19,0,*55
1516993451.13,56695,9.13,73738.0,-3.57,-24.05,-25.19,0,*54
1516993452.39,56696,9.19,73744.0,-3.55,-23.89,-25.03,0,*5D
1516993453.65,56697,9.13,73742.3,-3.55,-23.99,-25.13,0,*5C
1516993454.91,56698,9.19,73742.5,-3.55,-23.99,-25.13,0,*53
1516993456.19,56699,9.19,73742.3,-3.55,-23.99,-25.03,0,*53
1516993457.42,56700,9.13,73738.3,-3.55,-24.05,-25.19,0,*5B
1516993458.68,56701,9.13,73736.3,-3.55,-23.89,-25.03,0,*52
1516993459.94,56702,9.19,73742.8,-3.55,-23.99,-25.19,0,*5B
1516993461.2,56703,9.13,73740.3,-3.55,-23.99,-25.13,0,*50
1516993462.46,56704,9.13,73742.0,-3.55,-23.99,-25.13,0,*57
1516993463.67,56705,9.13,73736.5,-3.57,-24.05,-25.19,0,*5C
1516993464.91,56706,9.13,73740.3,-3.55,-24.05,-25.19,0,*5D
1516993466.14,56707,9.19,73740.3,-3.55,-24.05,-25.19,0,*5C
1516993467.4,56708,9.13,73736.8,-3.55,-24.05,-25.29,0,*50
1516993468.63,56709,9.13,73736.5,-3.55,-24.05,-25.19,0,*52
1516993469.87,56710,9.13,73738.8,-3.55,-23.89,-25.19,0,*59
1516993471.1,56711,9.19,73740.3,-3.57,-24.11,-25.23,0,*55
1516993472.34,56712,9.13,73738.0,-3.55,-24.05,-25.23,0,*51
1516993473.6,56713,9.19,73740.5,-3.55,-23.99,-25.13,0,*51
1516993474.83,56714,9.19,73740.8,-3.55,-24.05,-25.19,0,*5E
1516993476.09,56715,9.19,73740.0,-3.55,-23.99,-25.19,0,*5D
1516993477.35,56716,9.13,73736.8,-3.55,-23.99,-25.19,0,*5E
1516993478.58,56717,9.13,73740.0,-3.57,-24.11,-25.23,0,*53
1516993479.82,56718,9.19,73742.5,-3.55,-24.05,-25.19,0,*52
1516993481.03,56719,9.13,73736.8,-3.57,-24.05,-25.23,0,*58
1516993482.29,56720,9.13,73740.5,-3.55,-23.85,-24.97,0,*51
1516993483.53,56721,9.19,73742.8,-3.57,-23.95,-25.09,0,*55
1516993484.77,56722,9.19,73736.8,-3.57,-23.75,-25.03,0,*52
1516993486.01,56723,9.19,73740.3,-3.55,-23.89,-25.13,0,*53
1516993487.24,56724,9.13,73736.0,-3.55,-24.05,-25.19,0,*5D
1516993488.48,56725,9.13,73736.8,-3.55,-24.05,-25.13,0,*56
1516993489.71,56726,9.13,73740.3,-3.57,-23.85,-24.97,0,*55
1516993490.94,56727,9.19,73740.3,-3.55,-24.05,-25.19,0,*5E
1516993492.21,56728,9.13,73736.3,-3.55,-23.99,-25.13,0,*59
1516993493.46,56729,9.19,73740.3,-3.55,-23.99,-25.23,0,*5B
1516993494.72,56730,9.19,73740.5,-3.55,-23.99,-25.13,0,*50
1516993495.96,56731,9.19,73742.5,-3.55,-24.05,-25.19,0,*59
1516993497.19,56732,9.19,73742.8,-3.57,-24.11,-25.35,0,*53
1516993498.41,56733,9.19,73742.0,-3.57,-24.05,-25.35,0,*57
1516993499.62,56734,9.13,73742.3,-3.57,-24.05,-25.19,0,*5E
1516993500.84,56735,9.13,73740.5,-3.57,-24.05,-25.19,0,*5F
1516993502.09,56736,9.13,73744.0,-3.55,-23.99,-25.19,0,*5C
1516993503.35,56737,9.13,73740.5,-3.55,-23.99,-25.13,0,*57
1516993504.61,56738,9.19,73740.8,-3.55,-23.99,-25.19,0,*52
1516993505.83,56739,9.13,73738.8,-3.57,-24.05,-25.23,0,*5A
1516993507.06,56740,9.19,73744.0,-3.57,-24.11,-25.23,0,*51
1516993508.3,56741,9.19,73742.5,-3.57,-23.99,-25.23,0,*57
1516993509.54,56742,9.13,73742.3,-3.57,-24.11,-25.23,0,*53
1516993510.75,56743,9.19,73740.5,-3.57,-24.05,-25.19,0,*5E
1516993511.97,56744,9.19,73742.5,-3.57,-24.05,-25.09,0,*58
1516993513.21,56745,9.13,73740.5,-3.57,-23.95,-25.23,0,*5F
1516993514.45,56746,9.13,73740.3,-3.55,-24.05,-25.19,0,*59
1516993515.68,56747,9.13,73740.8,-3.55,-24.05,-25.19,0,*58
1516993516.92,56748,9.19,73746.3,-3.57,-24.11,-25.35,0,*5E
1516993518.17,56749,9.19,73740.8,-3.55,-23.99,-25.19,0,*54
1516993519.41,56750,9.13,73740.3,-3.55,-24.05,-25.19,0,*5E
1516993520.62,56751,9.13,73740.0,-3.57,-24.05,-25.23,0,*54
1516993521.89,56752,9.13,73738.5,-3.55,-23.75,-24.87,0,*5A
1516993523.11,56753,9.13,73742.3,-3.55,-23.89,-25.19,0,*5E
1516993524.33,56754,9.19,73742.8,-3.57,-24.05,-25.19,0,*58
1516993525.59,56755,9.13,73742.3,-3.55,-23.99,-25.19,0,*59
1516993526.84,56756,9.13,73742.5,-3.55,-23.99,-25.19,0,*5A
1516993528.1,56757,9.13,73740.8,-3.55,-23.99,-25.19,0,*5B
1516993529.34,56758,9.19,73746.0,-3.57,-24.11,-25.23,0,*58
1516993530.58,56759,9.13,73740.8,-3.57,-24.11,-25.35,0,*5E
1516993531.81,56760,9.13,73744.5,-3.55,-23.89,-25.13,0,*54
1516993533.04,56761,9.19,73746.0,-3.55,-24.05,-25.19,0,*5C
1516993534.26,56762,9.19,73744.0,-3.57,-24.05,-25.09,0,*5C
1516993535.52,56763,9.13,73740.8,-3.55,-23.99,-25.13,0,*56
1516993536.78,56764,9.19,73742.8,-3.55,-24.15,-25.19,0,*58
1516993538.01,56765,9.19,73744.0,-3.55,-24.05,-25.19,0,*58
1516993539.25,56766,9.19,73746.8,-3.55,-24.05,-25.19,0,*5B
1516993540.5,56767,9.13,73740.0,-3.55,-23.99,-25.19,0,*58
1516993541.74,56768,9.13,73740.3,-3.55,-24.05,-25.19,0,*55
1516993543.0,56769,9.13,73740.5,-3.55,-23.99,-25.13,0,*5C
1516993544.23,56770,9.13,73740.0,-3.57,-23.99,-25.23,0,*55
1516993545.47,56771,9.13,73746.0,-3.55,-24.05,-25.19,0,*5D
1516993546.73,56772,9.19,73744.0,-3.55,-24.05,-25.29,0,*5D
1516993547.96,56773,9.19,73742.0,-3.55,-24.05,-25.19,0,*5F
1516993549.25,56774,9.13,73742.3,-3.55,-23.99,-25.29,0,*59
1516993550.49,56775,9.13,73740.5,-3.57,-24.11,-25.23,0,*57
1516993551.72,56776,9.13,73742.5,-3.55,-24.05,-25.23,0,*53
1516993552.96,56777,9.19,73746.0,-3.57,-24.11,-25.35,0,*52
1516993554.2,56778,9.13,73740.8,-3.57,-24.11,-25.23,0,*5A
1516993555.43,56779,9.13,73746.3,-3.57,-24.11,-25.23,0,*5B
1516993556.69,56780,9.19,73746.8,-3.55,-24.05,-25.29,0,*50
1516993557.95,56781,9.19,73746.5,-3.55,-23.99,-25.13,0,*5A
1516993559.19,56782,9.13,73742.0,-3.57,-23.89,-25.03,0,*5B
1516993560.42,56783,9.13,73740.3,-3.55,-23.89,-25.19,0,*53
1516993561.68,56784,9.19,73742.3,-3.55,-23.89,-25.03,0,*5F
1516993562.89,56785,9.13,73738.5,-3.57,-23.89,-25.09,0,*56
1516993564.15,56786,9.13,73742.0,-3.55,-23.89,-25.03,0,*5D
1516993565.41,56787,9.19,73744.5,-3.55,-24.15,-25.19,0,*55
1516993566.66,56788,9.19,73744.3,-3.55,-23.99,-25.19,0,*59
1516993567.92,56789,9.13,73742.3,-3.55,-23.99,-25.13,0,*52
1516993569.16,56790,9.19,73746.3,-3.55,-24.05,-25.19,0,*52
1516993570.39,56791,9.13,73738.3,-3.55,-23.89,-25.13,0,*5A
1516993571.65,56792,9.19,73742.3,-3.55,-23.99,-25.19,0,*52
1516993572.93,56793,9.13,73744.3,-3.55,-23.99,-25.29,0,*50
1516993574.19,56794,9.19,73750.0,-3.55,-23.75,-24.87,0,*50
1516993575.45,56795,9.19,73744.5,-3.55,-23.99,-25.13,0,*5F
1516993576.69,56796,9.13,73742.8,-3.55,-23.75,-24.97,0,*53
1516993577.92,56797,9.19,73746.0,-3.55,-23.89,-25.13,0,*5C
1516993579.15,56798,9.19,73746.5,-3.55,-23.89,-24.97,0,*5E
1516993580.36,56799,9.19,73742.8,-3.53,-23.89,-25.13,0,*54
1516993581.6,56800,9.13,73742.3,-3.53,-23.85,-24.97,0,*5A
1516993582.83,56801,9.13,73740.3,-3.53,-23.85,-24.97,0,*5B
1516993584.07,56802,9.13,73744.3,-3.53,-23.89,-25.03,0,*58
1516993585.28,56803,9.19,73744.5,-3.53,-23.89,-25.19,0,*52
1516993586.54,56804,9.13,73742.0,-3.51,-23.85,-24.93,0,*58
1516993587.77,56805,9.13,73742.8,-3.53,-23.99,-25.19,0,*55
1516993588.99,56806,9.13,73742.5,-3.53,-24.05,-25.19,0,*54
1516993590.22,56807,9.13,73742.8,-3.53,-23.99,-25.19,0,*57
1516993591.46,56808,9.13,73746.3,-3.53,-23.99,-25.19,0,*58
1516993592.67,56809,9.13,73740.0,-3.53,-23.89,-25.13,0,*52
1516993593.94,56810,9.13,73740.8,-3.51,-23.99,-25.13,0,*59
1516993595.17,56811,9.13,73738.8,-3.53,-23.99,-25.13,0,*5A
1516993596.41,56812,9.13,73742.5,-3.53,-23.99,-25.19,0,*53
1516993597.67,56813,9.19,73746.0,-3.53,-23.99,-25.03,0,*59
1516993598.94,56814,9.13,73740.5,-3.51,-23.95,-25.09,0,*5A
1516993600.15,56815,9.13,73746.8,-3.53,-24.05,-25.35,0,*58
1516993601.41,56816,9.13,73746.0,-3.53,-24.15,-25.29,0,*57
1516993602.68,56817,9.13,73744.5,-3.51,-23.95,-25.13,0,*52
1516993603.91,56818,9.19,73744.5,-3.53,-24.15,-25.19,0,*5A
1516993605.15,56819,9.13,73742.3,-3.53,-23.99,-25.13,0,*52
1516993606.41,56820,9.19,73746.5,-3.51,-23.99,-25.13,0,*5A
1516993607.65,56821,9.13,73744.8,-3.53,-23.99,-25.13,0,*59
1516993608.91,56822,9.19,73746.3,-3.51,-23.85,-24.97,0,*58
1516993610.15,56823,9.13,73742.5,-3.51,-23.79,-24.93,0,*5E
1516993611.41,56824,9.19,73746.3,-3.51,-23.79,-24.83,0,*58
1516993612.64,56825,9.13,73740.0,-3.53,-23.99,-25.19,0,*57
1516993613.91,56826,9.13,73742.0,-3.51,-23.85,-25.09,0,*5A
1516993615.17,56827,9.13,73742.5,-3.51,-23.85,-24.97,0,*5D
1516993616.43,56828,9.13,73746.3,-3.51,-23.85,-25.09,0,*54
1516993617.66,56829,9.13,73742.0,-3.51,-23.79,-24.97,0,*50
1516993618.9,56830,9.13,73744.3,-3.51,-23.79,-24.93,0,*5C
1516993620.16,56831,9.19,73744.8,-3.51,-23.85,-24.93,0,*5E
1516993621.42,56832,9.13,73742.8,-3.51,-23.95,-25.13,0,*55
1516993622.68,56833,9.19,73744.8,-3.51,-23.95,-24.97,0,*59
1516993623.94,56834,9.19,73746.3,-3.51,-23.95,-25.09,0,*58
1516993625.18,56835,9.13,73740.5,-3.51,-23.79,-24.93,0,*59
1516993626.42,56836,9.13,73742.3,-3.49,-23.99,-25.13,0,*54
1516993627.67,56837,9.13,73740.3,-3.47,-24.15,-25.19,0,*52
1516993628.93,56838,9.13,73740.8,-3.49,-24.11,-25.29,0,*54
1516993630.17,56839,9.13,73742.8,-3.53,-24.05,-25.29,0,*5B
1516993631.43,56840,9.19,73742.0,-3.53,-23.99,-25.29,0,*57
1516993632.67,56841,9.13,73742.5,-3.49,-23.95,-25.23,0,*5B
1516993633.93,56842,9.19,73746.3,-3.51,-23.99,-25.13,0,*5E
1516993635.19,56843,9.13,73742.5,-3.51,-24.11,-25.23,0,*5B
1516993636.43,56844,9.13,73742.8,-3.49,-23.95,-25.13,0,*5D
1516993637.66,56845,9.13,73744.0,-3.49,-24.11,-25.23,0,*54
1516993638.9,56846,9.19,73746.3,-3.49,-23.99,-25.23,0,*50
1516993640.16,56847,9.19,73744.0,-3.51,-23.95,-25.09,0,*5C
1516993641.43,56848,9.13,73744.3,-3.51,-23.95,-25.09,0,*53
1516993642.69,56849,9.13,73744.8,-3.51,-23.85,-24.93,0,*51
1516993643.9,56850,9.19,73746.5,-3.53,-24.05,-25.19,0,*57
1516993645.14,56851,9.19,73744.0,-3.49,-23.95,-25.09,0,*52
1516993646.37,56852,9.19,73746.8,-3.49,-23.95,-25.13,0,*5A
1516993647.61,56853,9.13,73744.0,-3.49,-23.99,-25.13,0,*57
1516993648.88,56854,9.13,73746.3,-3.51,-23.95,-25.09,0,*5E
1516993650.14,56855,9.13,73740.8,-3.51,-23.99,-25.23,0,*5B
1516993651.4,56856,9.19,73744.3,-3.51,-23.99,-25.13,0,*5B
1516993652.67,56857,9.13,73742.0,-3.51,-23.95,-25.09,0,*5D
1516993653.93,56858,9.19,73746.3,-3.51,-23.99,-25.09,0,*5E
1516993655.19,56859,9.13,73746.8,-3.51,-24.11,-25.13,0,*53
1516993656.43,56860,9.19,73746.8,-3.49,-24.11,-25.23,0,*53
1516993657.66,56861,9.13,73746.0,-3.49,-24.11,-25.23,0,*52
1516993658.9,56862,9.13,73744.8,-3.49,-23.95,-25.23,0,*5A
1516993660.16,56863,9.13,73746.3,-3.49,-24.11,-25.29,0,*5A
1516993661.42,56864,9.13,73744.8,-3.51,-23.95,-25.13,0,*56
1516993662.71,56865,9.19,73746.5,-3.51,-24.15,-25.29,0,*51
1516993663.97,56866,9.19,73746.5,-3.51,-23.99,-25.23,0,*5B
1516993665.2,56867,9.13,73746.3,-3.49,-23.99,-25.23,0,*53
1516993666.46,56868,9.19,73750.0,-3.51,-24.11,-25.23,0,*52
1516993667.73,56869,9.13,73748.0,-3.51,-23.99,-25.13,0,*57
1516993668.99,56870,9.13,73746.8,-3.51,-23.99,-25.23,0,*5C
1516993670.25,56871,9.13,73744.3,-3.51,-23.99,-25.09,0,*55
1516993671.49,56872,9.13,73746.8,-3.49,-23.95,-25.09,0,*53
1516993672.75,56873,9.19,73746.8,-3.51,-23.95,-24.93,0,*59
1516993674.04,56874,9.13,73744.8,-3.51,-24.15,-25.29,0,*51
1516993675.27,56875,9.13,73746.3,-3.49,-23.99,-25.23,0,*50
1516993676.51,56876,9.13,73746.0,-3.49,-23.99,-25.13,0,*50
1516993677.77,56877,9.19,73746.8,-3.49,-24.11,-25.29,0,*5F
1516993679.01,56878,9.19,73748.5,-3.49,-23.99,-25.13,0,*5E
1516993680.25,56879,9.13,73748.5,-3.49,-23.95,-25.09,0,*58
1516993681.49,56880,9.13,73748.8,-3.49,-23.95,-25.09,0,*5E
1516993682.72,56881,9.19,73748.3,-3.49,-23.95,-24.97,0,*59
1516993683.95,56882,9.19,73750.3,-3.49,-24.15,-25.13,0,*58
1516993685.19,56883,9.19,73750.8,-3.49,-24.11,-25.13,0,*5D
1516993686.42,56884,9.19,73750.0,-3.49,-23.95,-24.97,0,*5C
1516993687.68,56885,9.19,73748.8,-3.47,-23.95,-25.09,0,*55
1516993688.92,56886,9.19,73750.3,-3.49,-24.15,-25.23,0,*5F
1516993690.15,56887,9.13,73750.0,-3.49,-23.99,-25.23,0,*5D
1516993691.4,56888,9.13,73746.5,-3.47,-24.11,-25.23,0,*5B
1516993692.66,56889,9.13,73748.0,-3.47,-24.11,-25.19,0,*53
1516993693.89,56890,9.13,73746.5,-3.47,-24.05,-25.09,0,*5F
1516993695.13,56891,9.13,73748.3,-3.49,-23.85,-24.97,0,*59
1516993696.36,56892,9.19,73752.0,-3.49,-23.95,-25.13,0,*56
1516993697.58,56893,9.13,73748.5,-3.49,-23.89,-25.09,0,*51
1516993698.81,56894,9.13,73746.3,-3.49,-23.85,-24.97,0,*5C
1516993700.04,56895,9.19,73750.8,-3.49,-24.11,-25.23,0,*59
1516993701.27,56896,9.13,73748.5,-3.47,-24.05,-25.23,0,*51
1516993702.5,56897,9.19,73752.3,-3.47,-24.05,-25.23,0,*50
1516993703.76,56898,9.13,73750.5,-3.47,-23.95,-25.19,0,*58
1516993705.0,56899,9.19,73752.0,-3.49,-23.99,-25.13,0,*51
1516993706.23,56900,9.13,73748.0,-3.49,-23.99,-25.13,0,*50